Wind_Speed
16 14 14 14 14 15 16 16 16 16 16 16 16 16 16 15 14 15 15 16 15 16 16 17 16 15 15 16 16 16 16 17 17 18 19 20 19 19 18 17 17 17 18 19 20 19 18 18 18 18 18 18 17 17 18 17 17 17 17 18 18 18 19 20 20 20 20 19 19 19 19 19 19 18 18 18 18 16 15 14 16 17 15 15 14
18 15 13 14 13 15 16 15 16 16 16 16 16 16 15 14 14 15 15 15 16 16 16 16 15 15 16 16 16 16 16 17 17 18 19 19 20 19 19 17 17 17 18 19 19 19 19 18 19 19 17 18 17 17 18 17 17 17 17 18 18 18 19 20 20 21 20 19 19 18 18 18 18 17 16 16 16 15 14 13 14 15 14 13 13
19 17 14 14 14 15 15 15 15 15 16 15 15 15 15 14 14 14 15 15 15 15 15 15 14 15 16 16 17 17 17 17 17 17 18 19 20 19 19 18 17 17 17 18 18 19 20 18 20 20 18 18 18 17 18 19 18 17 18 18 19 19 19 20 20 20 20 19 18 17 17 17 17 16 16 15 15 15 13 12 13 14 13 12 12
19 17 16 15 14 14 15 14 14 15 15 15 15 14 14 14 14 14 14 14 14 14 14 14 14 15 16 16 17 17 17 17 17 17 17 18 19 19 18 18 18 17 17 17 18 19 19 19 20 20 19 18 18 18 19 20 19 18 18 18 18 18 17 18 18 18 17 17 16 15 16 16 16 15 15 15 15 14 13 13 13 13 12 12 11
18 16 16 15 15 13 14 14 14 14 14 15 15 14 13 13 13 14 14 14 14 14 13 13 14 16 16 17 17 17 17 17 17 17 17 17 18 18 18 17 17 17 17 17 17 17 19 19 20 20 20 20 19 18 19 20 20 18 18 17 16 16 15 15 16 15 15 15 14 13 13 14 14 14 14 14 14 13 13 13 13 12 11 10 10
18 16 16 15 15 14 13 13 13 14 14 14 14 14 13 12 12 14 14 14 13 13 13 13 15 16 16 17 17 17 17 17 17 17 17 17 17 17 17 17 16 17 18 17 17 17 18 19 20 20 20 20 19 19 19 19 19 18 18 17 16 16 15 15 15 14 13 13 13 12 11 11 11 12 12 12 12 12 12 12 12 11 10 10 9
16 16 15 15 15 15 14 12 12 12 13 13 14 13 13 12 12 13 13 13 13 13 13 14 15 16 16 16 17 16 17 17 17 17 17 17 16 16 16 16 15 16 18 18 18 18 18 19 20 21 21 20 20 19 18 18 18 18 17 17 16 16 15 15 15 15 11 10 12 12 11 9 9 10 10 10 11 12 11 11 11 10 9 9 9
16 15 14 14 14 15 14 13 12 12 13 13 13 12 12 12 12 13 12 13 13 13 13 14 15 16 16 16 16 16 16 16 17 17 16 17 17 16 15 15 14 16 17 17 18 18 19 19 20 21 21 20 20 19 18 18 17 16 16 16 16 16 15 15 15 14 10 9 9 8 9 9 8 10 10 10 11 11 11 10 9 9 9 8 8
15 15 14 14 14 14 14 13 13 13 13 13 12 11 11 11 11 12 12 12 12 13 13 14 15 15 16 15 15 16 16 16 16 16 16 17 16 15 15 14 14 15 16 17 18 18 19 19 20 20 20 20 19 18 17 16 15 15 15 17 18 17 16 15 14 12 10 8 7 7 9 8 8 10 10 9 9 10 10 9 8 8 7 7 7
15 14 14 13 14 13 12 12 12 12 12 13 12 11 11 11 10 11 12 11 11 12 13 14 15 15 15 15 16 16 15 16 16 16 16 17 16 15 14 14 13 14 16 16 17 18 17 18 18 18 18 18 17 17 16 15 14 13 14 16 18 17 16 15 13 11 9 6 5 8 9 7 7 8 9 9 8 9 9 9 7 7 6 6 7
15 14 13 12 13 12 11 11 11 12 12 12 11 10 10 10 10 10 11 10 11 12 13 14 14 15 15 16 16 16 15 15 16 15 16 16 15 14 13 13 13 14 15 16 16 17 16 15 16 16 16 17 17 16 16 14 13 13 14 15 16 16 15 14 13 11 8 4 3 7 8 6 5 6 7 7 7 7 7 7 6 5 5 5 6
15 14 13 12 12 11 10 10 11 11 11 11 11 11 9 10 10 10 10 10 11 12 12 13 15 15 16 16 16 16 15 15 15 14 14 15 14 12 12 12 13 13 15 16 16 15 15 15 16 16 17 17 16 15 15 14 13 13 13 14 15 15 14 13 12 10 6 4 5 7 7 7 5 4 4 4 4 4 5 6 5 4 4 4 4
15 13 12 12 13 11 10 10 10 11 11 11 11 10 10 10 10 10 10 10 11 12 13 13 15 16 16 16 16 15 14 14 14 13 13 14 13 12 11 11 12 13 14 15 15 14 15 15 16 16 16 16 15 15 14 13 13 13 12 13 14 14 14 13 12 9 4 5 8 9 8 7 6 4 3 2 1 2 4 4 4 3 2 2 2
14 13 12 12 13 12 11 10 11 11 11 11 10 9 9 11 10 10 10 11 11 11 12 13 14 15 16 15 15 14 14 14 13 13 13 13 12 11 11 11 12 12 13 14 14 14 14 15 15 15 15 15 14 14 14 13 14 14 14 15 15 15 15 14 10 6 2 6 7 8 9 7 5 4 3 2 1 2 2 1 1 1 0 0 0
13 14 13 12 13 12 11 11 11 11 10 10 10 9 9 10 11 11 11 11 11 11 12 13 14 14 16 15 14 14 14 14 14 13 12 12 12 10 10 11 12 12 13 13 13 13 13 13 13 13 13 13 13 13 14 15 16 16 15 15 15 14 13 12 9 3 3 5 6 7 9 8 6 4 4 3 2 2 1 1 1 1 1 1 0
12 13 12 12 12 12 12 11 11 11 11 10 10 10 10 10 11 11 11 12 12 12 13 13 14 14 15 14 13 13 14 14 14 14 12 12 11 11 11 11 12 12 12 12 12 12 12 12 12 12 13 13 13 13 14 14 14 14 15 15 14 13 12 11 9 2 3 5 7 8 10 9 7 5 4 3 2 2 2 1 1 1 1 0 0
12 13 12 12 11 12 12 12 11 11 11 11 11 11 12 12 12 12 12 12 12 13 13 14 13 13 14 13 13 12 13 13 13 13 11 11 11 11 11 11 11 11 11 12 12 11 11 11 12 13 14 15 16 16 16 15 14 15 15 15 14 13 11 11 8 1 3 6 8 9 10 9 7 6 4 3 2 2 2 1 1 1 1 1 0
13 12 12 12 12 12 11 11 11 10 11 11 12 12 13 13 13 14 13 13 13 13 14 14 13 13 13 13 12 12 12 12 12 12 11 11 11 11 11 11 11 10 11 12 11 11 11 12 15 17 18 20 20 20 19 17 17 17 17 15 14 13 12 12 8 2 5 10 10 10 10 8 7 5 4 3 3 2 2 1 1 1 0 0 0
13 12 12 12 12 11 11 11 10 10 11 11 12 13 13 14 15 15 15 15 15 14 14 14 13 13 13 13 13 12 12 12 11 11 11 11 12 11 11 11 10 10 11 11 11 12 13 16 20 22 22 21 21 20 20 19 19 18 17 15 14 13 12 12 8 2 7 12 11 10 9 7 5 4 4 3 3 2 2 1 1 0 0 0 0
13 12 12 11 11 11 11 11 11 11 11 11 12 14 14 14 15 15 15 16 16 15 15 14 14 13 13 13 13 13 12 12 12 11 11 11 12 12 11 11 11 11 11 11 12 14 17 21 23 23 22 21 19 19 18 19 18 17 15 13 12 11 11 10 5 1 7 11 9 8 6 4 4 4 4 3 3 3 2 2 1 2 2 2 2
13 13 10 10 10 11 11 11 12 12 12 12 13 15 16 16 16 16 16 16 17 16 16 16 15 14 13 13 12 12 12 12 12 12 11 12 12 12 11 11 11 11 11 13 14 16 19 21 21 21 20 20 19 19 18 18 17 16 15 14 13 11 11 8 4 1 6 9 8 6 4 3 4 5 5 5 4 4 4 4 4 5 5 5 5
15 14 10 9 9 10 12 11 12 13 13 13 13 15 15 16 17 17 18 18 18 18 17 16 16 15 14 13 13 12 13 13 13 13 12 12 12 12 12 11 11 11 13 15 16 17 17 17 16 16 16 17 17 17 17 16 15 15 15 15 15 12 11 9 4 0 7 9 6 3 3 4 5 6 6 6 6 6 6 7 8 8 8 8 8
15 14 12 10 8 10 12 12 12 13 14 14 14 15 16 17 17 18 19 20 19 18 18 17 16 16 15 13 13 14 14 13 14 13 13 13 13 13 12 11 11 13 14 15 16 16 14 13 13 13 13 14 14 15 15 14 13 13 13 13 13 11 10 8 2 3 7 7 4 3 4 6 7 8 8 8 9 9 9 10 11 11 11 10 10
15 14 12 10 8 10 12 13 13 13 14 15 15 16 17 18 19 19 20 20 20 18 18 17 16 16 15 14 13 15 15 14 13 13 13 14 13 13 12 12 13 14 15 15 15 13 12 11 11 11 11 12 12 13 14 13 12 12 11 9 10 10 8 5 1 3 5 3 4 6 8 9 9 10 11 11 12 11 11 12 12 13 12 11 11
15 14 13 12 11 11 13 15 15 15 15 15 17 18 19 20 21 21 20 20 19 19 18 18 17 16 15 14 14 16 16 15 14 14 14 14 13 12 13 14 15 16 15 14 12 11 11 10 9 10 10 10 10 10 12 12 11 10 9 9 9 8 6 4 0 2 4 5 7 9 10 11 11 12 13 13 12 12 12 12 12 12 12 12 11
15 15 15 14 14 13 14 15 16 16 16 16 18 20 21 22 22 22 21 20 19 19 19 18 17 16 15 16 16 18 17 15 15 14 14 13 13 13 14 16 16 14 13 12 10 9 9 10 9 9 10 9 8 8 9 9 9 9 8 7 6 5 6 4 2 5 7 9 10 11 12 13 13 13 13 13 13 12 13 12 12 12 12 12 11
15 15 15 16 16 15 15 16 17 17 18 18 20 22 23 23 23 22 20 19 19 19 19 18 17 17 17 17 17 17 16 15 14 13 13 13 13 15 15 15 13 12 11 10 10 9 9 10 10 9 9 10 11 10 8 8 8 6 5 4 3 4 4 5 6 8 10 11 11 13 14 14 14 14 14 14 13 13 13 13 13 12 12 12 11
16 16 15 16 18 17 17 17 18 18 19 20 22 24 25 25 23 21 20 19 19 19 19 18 17 17 16 15 14 13 13 14 13 13 12 13 14 15 14 13 13 12 10 7 7 8 8 8 8 7 6 8 12 11 6 5 6 3 3 3 5 5 5 9 11 10 11 12 13 14 15 14 13 13 13 13 13 13 13 13 12 12 12 11 11
16 17 16 18 19 18 18 18 19 19 20 21 23 24 25 24 22 20 20 20 20 19 19 18 17 16 14 12 11 8 9 11 11 12 12 13 14 13 13 12 12 10 8 6 4 3 5 5 5 6 5 5 9 9 4 3 6 6 4 5 6 6 8 11 12 12 13 13 14 14 14 13 12 11 11 11 11 11 11 11 11 11 12 11 11
16 17 18 20 20 19 19 19 20 21 22 22 22 23 22 21 20 20 20 19 20 19 18 18 16 13 10 11 10 6 7 9 10 11 11 12 12 11 11 10 10 9 7 4 3 2 4 5 7 8 7 7 8 8 4 2 7 8 9 9 8 9 9 11 12 13 14 13 13 12 11 11 10 10 10 10 10 10 10 10 10 11 11 11 11
16 18 19 21 21 21 21 20 21 22 22 22 21 20 19 18 18 18 18 19 19 17 17 15 11 9 8 11 14 9 7 10 11 12 11 10 11 11 10 9 10 9 7 5 6 5 4 6 9 7 6 7 6 6 6 0 5 6 9 10 9 8 9 10 11 11 12 12 11 11 10 11 11 10 10 10 10 10 9 9 10 10 10 11 11
17 19 20 22 23 22 21 21 21 21 22 22 21 20 19 18 17 17 17 17 17 15 15 12 8 9 9 11 15 10 8 11 12 11 10 10 11 11 11 10 10 9 7 6 8 7 4 5 8 6 6 7 4 5 8 4 3 6 7 7 8 7 7 9 9 8 7 7 9 8 8 9 10 10 9 10 10 10 9 9 9 9 10 11 11
17 19 21 22 23 22 20 20 21 21 23 22 20 20 19 17 16 17 17 17 16 14 12 11 12 13 12 14 15 11 9 11 12 11 11 11 12 11 10 11 10 9 7 6 6 6 5 5 7 6 7 9 8 7 7 7 2 6 7 6 7 5 5 8 8 6 4 4 6 7 8 9 9 10 9 8 10 10 9 9 10 10 10 11 12
18 20 22 22 22 21 20 19 20 21 22 21 21 20 18 17 18 18 17 16 15 13 13 13 13 13 15 16 14 11 11 12 13 12 12 11 11 10 8 10 10 8 7 6 7 7 7 6 6 6 7 9 9 7 7 8 6 4 7 8 7 4 2 6 5 4 7 6 6 6 8 10 10 10 10 9 10 10 10 11 11 12 11 11 11
19 20 21 23 21 19 19 20 19 20 20 20 20 19 18 19 19 18 16 14 13 15 14 11 12 15 17 16 13 12 12 13 14 14 13 12 12 10 10 10 9 7 7 7 8 8 8 7 8 8 9 9 7 6 8 8 7 4 5 7 6 4 1 5 2 2 7 8 7 6 8 11 10 10 11 11 10 11 11 12 13 14 13 12 12
18 21 22 22 21 18 19 21 20 20 20 19 19 17 18 20 18 16 15 15 14 14 13 12 13 16 15 13 12 13 12 13 14 14 14 13 12 11 11 10 8 7 7 7 7 7 7 8 8 8 9 9 6 5 8 8 6 5 4 4 4 3 1 2 2 2 4 7 6 5 6 10 11 9 11 12 10 11 12 12 14 16 15 13 13
20 21 21 21 20 19 20 21 21 21 20 18 18 17 17 18 17 15 15 15 12 9 11 13 14 14 12 12 13 14 13 14 14 14 13 12 11 10 10 9 8 8 8 8 7 6 7 7 8 7 7 6 4 4 6 7 6 5 4 3 2 2 1 2 2 5 3 7 7 7 6 8 11 10 10 12 11 11 12 11 13 16 16 15 15
22 22 21 21 20 19 21 21 21 21 19 18 18 18 18 18 17 16 16 16 13 11 11 12 11 11 12 13 15 16 14 14 14 13 12 12 11 10 8 7 9 8 7 9 9 9 8 7 7 7 5 5 5 5 4 6 8 7 4 3 4 3 1 2 5 6 5 5 6 8 8 9 10 10 10 10 11 11 11 11 13 17 17 15 15
24 23 22 22 21 20 22 21 21 22 21 20 20 20 19 19 18 18 18 19 17 15 13 10 9 10 12 13 16 17 15 13 13 13 13 13 13 11 8 6 7 7 6 7 9 10 9 7 7 6 5 5 5 5 6 6 6 7 7 3 1 4 3 3 4 2 4 5 6 6 8 9 9 9 9 8 9 10 11 12 16 18 17 15 15
23 23 23 23 23 22 23 22 22 24 24 22 22 22 20 20 20 19 18 20 19 16 14 12 10 9 11 13 14 16 15 13 13 14 13 13 13 12 9 7 7 7 6 6 7 8 7 6 5 3 4 4 4 3 4 3 1 6 8 2 2 1 1 2 1 4 4 6 7 7 7 7 6 7 7 7 10 10 10 13 14 14 14 14 14
23 24 23 23 24 24 23 23 23 25 25 22 23 22 20 21 23 20 18 19 18 15 14 12 10 10 12 13 13 14 15 14 14 13 13 13 13 12 11 8 8 8 6 7 7 7 6 5 3 3 5 4 2 2 2 0 2 6 6 2 1 1 1 1 1 4 5 5 6 7 8 8 7 9 9 9 11 11 11 12 11 11 12 13 15
25 24 23 24 24 23 23 23 23 25 25 22 23 21 18 21 22 20 19 18 16 15 14 12 11 12 12 13 14 14 14 14 13 12 11 12 12 12 12 10 9 9 7 7 8 7 6 4 2 4 5 4 2 2 1 0 2 3 5 4 2 4 4 2 3 6 6 6 5 6 9 11 10 9 9 11 12 12 14 14 13 13 13 14 16
27 25 25 25 23 23 23 22 22 25 24 21 22 19 17 18 17 17 18 16 15 14 12 11 12 13 12 12 13 13 13 14 13 11 10 11 11 12 12 9 8 9 7 8 9 8 7 3 2 3 4 4 3 2 1 0 2 1 3 4 2 4 6 5 4 5 8 9 8 8 10 9 9 9 10 12 11 12 15 15 15 15 14 15 16
27 26 26 25 24 24 23 21 22 25 24 20 20 19 17 14 13 14 14 13 13 12 10 10 11 12 11 12 13 13 13 13 13 12 11 11 11 11 11 9 8 8 7 7 8 8 7 4 3 3 4 5 4 3 2 2 2 1 2 3 2 2 3 4 5 6 7 8 9 10 9 6 7 9 10 11 10 12 15 14 15 16 15 16 16
28 28 28 26 25 25 23 21 22 25 24 21 19 20 18 15 15 15 15 14 13 13 13 13 12 11 11 12 13 13 13 13 12 12 11 11 11 10 10 9 9 9 9 8 7 8 7 4 4 5 6 7 5 4 4 2 2 1 1 2 3 2 2 4 7 7 5 5 7 8 10 9 9 9 10 12 11 13 14 12 13 15 14 14 14
28 28 28 27 26 28 26 22 23 24 25 24 20 20 19 17 18 20 19 18 17 15 14 14 12 12 11 11 12 12 12 12 11 11 11 11 11 9 9 10 10 10 9 8 7 7 6 5 5 5 5 7 6 5 6 4 2 0 2 3 3 2 3 5 6 7 5 6 7 8 10 11 10 11 11 12 14 15 14 11 12 13 11 11 11
27 27 27 26 26 29 28 24 23 23 24 24 23 22 20 18 19 19 19 18 17 16 14 12 11 11 11 12 12 12 11 10 10 10 10 11 10 9 10 10 10 10 10 9 8 7 7 6 6 5 4 6 6 5 6 5 3 1 2 3 3 3 5 5 7 9 9 9 9 9 10 11 11 14 13 13 15 16 13 11 11 11 10 10 11
27 26 26 25 25 27 28 26 23 23 24 25 24 23 22 21 19 18 18 17 16 15 13 11 10 11 11 12 12 12 11 10 10 9 9 10 10 9 10 10 10 11 11 10 8 7 7 6 4 4 4 4 5 6 7 5 3 2 1 1 2 4 5 6 8 8 8 10 10 10 12 13 13 13 11 12 15 14 11 10 10 9 9 9 11
27 26 27 25 24 25 27 27 24 23 24 25 23 22 23 22 19 17 17 16 14 14 13 11 10 11 11 11 12 11 11 10 10 9 9 10 10 9 9 10 10 11 11 10 9 7 5 5 5 4 4 4 4 5 6 5 3 2 0 1 2 4 5 7 8 6 6 8 10 11 12 13 13 12 10 12 13 10 8 9 8 8 8 9 11
26 26 27 26 24 24 26 28 26 24 24 25 22 21 23 22 19 16 16 16 14 14 15 13 12 12 12 12 11 11 11 11 10 9 9 9 9 10 10 10 11 12 11 10 10 7 4 5 6 6 5 4 4 5 5 5 4 2 2 3 3 4 6 8 7 6 6 7 9 12 12 13 13 13 11 12 12 8 6 7 7 6 8 9 10
27 26 27 28 25 24 26 28 27 25 25 25 22 21 22 23 21 17 16 17 16 16 17 15 14 14 13 12 11 10 10 10 9 8 8 9 9 9 10 10 11 11 11 10 10 8 6 6 6 7 6 4 4 4 5 5 4 2 2 4 5 5 6 6 6 6 8 8 7 9 11 11 11 11 11 12 12 9 7 6 4 5 7 7 8
Wind_Direction
147 140 134 129 126 123 118 119 119 118 117 117 117 117 117 117 117 115 115 114 114 112 110 108 107 105 103 102 102 101 100 103 103 102 102 102 101 100 102 103 106 107 108 107 106 108 109 109 108 108 110 110 109 111 110 108 107 106 105 106 106 104 104 103 104 105 109 110 109 108 107 108 108 109 111 113 114 112 112 117 119 120 120 118 121
144 143 140 137 134 127 122 123 121 118 118 120 120 119 118 118 116 115 115 114 115 114 112 110 111 109 107 105 104 103 102 103 102 101 101 102 101 100 101 104 107 109 108 107 108 108 110 111 109 108 110 111 111 111 109 106 104 105 105 106 106 104 103 102 102 102 104 106 106 106 107 108 110 112 112 113 114 112 111 114 116 117 116 116 121
142 142 141 142 141 132 128 127 124 121 121 121 119 118 117 116 114 112 114 115 115 114 114 113 115 112 109 108 106 106 105 102 101 101 101 101 100 100 104 107 108 109 110 108 109 108 110 112 111 112 113 113 114 113 110 107 105 105 106 107 107 105 104 103 101 100 99 99 100 103 105 107 109 111 112 112 112 111 111 113 113 113 114 117 120
144 142 142 145 146 138 133 131 128 125 123 120 117 117 116 116 114 111 111 113 113 112 113 113 116 115 111 110 108 107 107 106 105 104 102 100 99 100 103 107 109 110 110 109 109 109 110 111 112 114 116 116 116 115 113 111 110 110 108 107 107 104 104 104 101 101 99 97 98 101 104 106 107 108 109 110 109 109 113 114 113 112 116 120 121
147 145 145 146 147 142 136 135 131 127 123 121 118 118 116 115 113 110 110 109 110 112 113 114 116 116 113 112 110 110 109 109 109 107 103 102 102 101 102 105 109 110 110 111 112 111 113 113 113 114 116 117 117 117 116 115 113 112 110 108 105 101 99 97 97 98 100 99 98 99 103 108 109 109 109 111 111 112 115 115 114 115 118 122 124
147 146 147 147 144 139 138 137 129 127 126 123 121 120 117 115 111 110 111 109 110 112 116 118 118 117 115 113 112 113 113 113 112 110 107 105 105 104 104 105 108 109 110 113 114 113 114 114 114 114 114 116 117 118 118 117 115 115 112 108 104 100 97 92 89 88 94 99 95 95 100 108 114 115 116 118 120 122 123 123 122 123 125 125 125
146 144 146 142 135 133 137 137 129 128 128 125 124 123 120 116 114 113 113 114 113 113 116 119 119 116 116 116 116 117 116 115 114 113 110 108 107 105 103 104 107 109 110 112 114 114 114 114 114 114 115 117 119 121 121 119 118 117 112 108 104 100 97 92 85 80 84 89 84 85 90 102 118 120 123 127 127 128 128 129 130 129 128 127 128
144 143 143 136 130 127 131 135 134 134 129 126 125 124 123 119 116 115 116 117 117 117 118 118 118 117 118 118 119 120 118 117 116 114 111 107 104 102 101 102 107 109 110 112 115 115 115 116 115 116 117 119 122 124 123 121 119 117 112 107 103 99 96 93 90 88 88 69 57 76 90 96 117 122 123 126 124 124 124 126 126 126 127 124 128
142 140 138 133 131 129 131 135 137 138 133 128 126 126 128 125 121 118 118 120 121 123 122 120 120 121 122 121 120 120 120 118 116 114 110 106 103 102 102 103 107 110 112 114 116 117 117 118 118 118 119 121 123 124 124 123 122 119 115 108 103 99 97 94 90 93 94 71 57 87 93 93 114 119 116 117 117 121 122 124 122 122 123 116 117
141 138 136 133 130 131 134 137 136 137 135 132 131 131 130 129 129 126 123 123 124 124 123 123 122 123 122 120 120 120 122 119 115 113 110 108 107 105 104 105 108 112 114 116 118 118 119 120 120 120 121 123 124 125 126 127 126 122 118 113 107 102 100 97 89 87 89 82 76 84 81 87 114 120 118 119 119 119 116 118 121 120 117 111 112
140 140 138 133 129 130 133 135 136 136 136 137 138 136 134 133 133 132 130 129 127 124 122 124 123 121 121 120 119 120 122 119 116 114 111 111 109 106 105 105 109 114 116 117 118 117 118 118 117 118 119 122 124 127 130 131 128 122 117 114 108 104 105 103 93 86 89 103 68 59 65 79 110 127 127 130 130 122 115 115 118 119 115 112 114
138 142 141 135 128 128 133 133 135 137 139 139 140 138 140 141 139 137 136 135 133 128 127 127 126 123 123 122 119 120 121 119 118 114 111 110 108 105 103 104 110 116 118 117 117 115 113 113 114 115 116 118 121 126 129 131 129 124 119 112 107 107 108 105 101 101 103 104 73 56 63 70 85 110 120 134 137 121 113 113 118 118 113 113 114
138 143 140 134 129 132 136 136 137 139 141 139 141 143 145 147 146 144 141 143 139 133 133 132 131 128 124 121 120 122 123 121 118 112 111 110 109 108 106 107 112 116 116 116 115 111 109 110 113 115 116 117 117 120 123 127 128 125 118 106 100 98 95 91 98 116 112 49 58 56 54 56 62 73 79 107 123 99 95 106 121 124 120 118 116
139 142 138 135 132 137 140 141 141 142 143 141 143 147 147 149 151 152 147 146 142 134 134 133 133 131 126 125 127 127 125 122 117 112 110 110 113 115 111 110 113 116 114 114 112 108 107 107 110 115 117 116 115 115 116 120 121 117 112 103 98 94 89 84 83 102 70 26 44 40 30 29 35 44 45 35 26 50 65 85 117 120 119 59 45
136 140 139 139 137 140 143 144 145 144 145 145 150 152 149 151 154 157 151 147 143 137 135 132 133 133 128 129 132 130 126 122 116 111 111 115 121 119 113 110 112 115 113 110 109 107 106 105 106 112 115 116 115 114 113 115 114 113 112 107 103 97 92 90 83 75 347 2 20 20 15 13 15 18 13 4 354 356 3 346 335 331 345 16 351
133 139 139 141 141 146 148 149 150 149 149 150 156 156 153 154 157 157 151 148 145 140 137 133 134 135 130 129 131 129 127 122 116 113 115 121 125 122 115 112 113 114 112 109 109 107 105 105 105 108 112 114 114 112 112 115 115 114 116 113 108 103 99 98 98 98 309 345 6 10 6 3 0 357 354 345 331 318 311 326 329 332 333 343 225
132 140 141 142 146 152 153 153 155 154 156 156 158 158 155 157 158 154 148 147 146 142 138 134 134 133 130 129 127 126 125 123 119 117 119 124 127 124 118 114 115 115 114 112 110 106 103 104 103 104 105 104 104 103 106 111 114 115 117 117 114 107 99 96 101 127 339 10 12 2 352 351 350 350 351 342 333 316 319 336 344 354 333 314 301
131 140 142 146 151 154 151 151 156 154 157 158 159 160 156 157 158 152 148 147 145 141 138 133 132 130 127 126 124 124 124 123 121 119 120 126 128 125 119 116 116 115 115 113 107 102 100 99 96 96 96 98 98 98 100 104 109 111 112 114 113 104 92 92 107 144 4 11 5 356 349 351 356 355 356 354 352 344 352 360 3 8 344 329 233
130 140 142 147 152 149 144 147 152 152 157 157 158 157 153 155 154 151 149 145 141 139 136 132 131 129 126 124 124 126 125 123 121 121 122 125 128 125 118 117 115 114 114 106 100 98 98 96 95 95 95 97 97 97 98 101 104 104 106 109 110 105 98 102 122 150 360 1 356 352 354 360 7 10 14 17 18 17 18 18 22 40 51 77 225
126 133 138 141 144 145 147 150 148 151 157 153 154 152 150 151 148 147 145 140 136 135 135 133 133 130 129 127 125 127 127 126 123 124 124 125 128 125 120 118 114 113 108 99 97 97 99 99 98 95 93 94 94 96 98 100 100 97 98 99 104 109 104 109 133 144 356 1 359 355 2 14 26 42 45 43 45 42 40 45 52 67 72 87 94
127 132 137 138 138 146 150 149 148 149 152 149 152 152 150 148 145 144 141 138 135 135 136 135 134 131 128 125 123 123 123 125 126 127 126 127 128 125 123 117 112 115 108 99 97 97 101 100 97 94 92 92 92 94 96 97 96 92 88 85 93 102 105 122 160 169 349 354 359 359 19 44 60 68 65 59 59 62 64 68 76 82 83 89 91
129 130 136 139 137 145 144 147 149 145 147 149 150 149 147 145 144 143 141 138 136 136 136 134 133 128 124 123 123 123 123 126 128 128 129 130 129 126 121 113 113 116 108 101 99 98 98 97 95 94 93 93 93 94 95 94 91 88 84 84 87 90 109 135 156 357 335 344 354 10 53 73 80 80 77 71 68 72 72 75 79 81 82 82 82
127 128 133 137 135 139 139 142 145 141 145 147 145 144 142 142 142 141 139 137 135 134 133 131 128 122 120 121 123 123 126 130 130 129 129 130 128 124 119 115 118 116 110 104 100 97 94 92 91 89 89 89 92 94 94 90 86 87 83 86 86 87 115 130 114 320 325 342 9 57 84 84 83 81 79 75 70 71 70 71 70 69 69 69 70
128 130 131 133 135 139 141 141 141 141 143 144 143 142 142 142 142 140 138 137 134 132 129 127 124 119 116 117 120 122 126 132 132 128 127 127 124 123 123 121 122 116 110 105 98 91 85 85 83 80 77 80 87 92 97 92 87 90 82 85 92 94 117 128 136 302 332 21 78 89 91 86 84 81 78 74 70 67 64 63 61 60 60 60 62
128 130 130 130 136 142 143 140 139 141 140 141 141 141 142 142 140 139 139 136 132 131 128 126 125 121 118 117 120 121 123 126 126 125 125 124 124 126 124 121 118 112 107 103 94 81 78 78 76 76 71 75 79 83 98 95 90 92 83 90 103 113 140 167 261 360 45 84 93 92 90 87 85 81 76 72 68 65 61 59 57 56 55 54 55
130 128 126 128 135 137 137 135 135 137 136 137 138 140 142 140 139 139 137 133 131 130 127 126 125 123 119 117 115 113 114 118 119 121 122 122 123 122 120 119 115 110 104 93 82 75 77 73 74 78 74 81 74 76 98 84 76 89 93 109 127 157 185 194 83 66 84 90 92 94 92 89 84 79 74 70 67 64 60 57 54 51 49 49 49
132 126 123 127 133 134 134 134 133 134 134 135 138 139 142 141 139 138 135 130 128 129 127 123 122 121 117 113 110 110 114 119 120 120 122 123 122 119 119 122 119 112 102 86 75 71 73 71 74 77 75 84 77 79 92 56 57 107 135 150 162 185 177 140 102 88 94 94 95 94 89 86 81 77 72 67 63 59 56 53 50 47 45 43 42
134 129 128 131 136 137 136 135 133 133 133 134 137 139 141 141 140 137 131 128 127 127 124 119 116 113 109 104 104 111 122 122 118 116 121 127 129 127 124 125 121 109 98 82 64 63 70 67 63 67 74 86 83 89 100 42 48 115 161 150 141 135 109 107 104 95 98 98 97 93 87 84 78 75 70 64 61 55 52 48 45 43 40 39 36
138 135 134 135 139 140 137 136 133 132 132 133 136 138 140 139 138 135 129 127 127 125 121 115 111 108 105 103 98 102 125 124 115 116 121 129 133 133 126 121 116 104 95 76 50 59 68 63 66 79 96 109 102 114 140 31 36 40 65 105 106 95 89 102 107 103 102 99 96 92 87 83 77 73 66 60 57 52 49 44 40 37 34 32 29
142 137 136 136 140 140 136 134 132 133 135 137 139 139 140 138 136 133 129 128 127 124 120 114 111 115 125 137 136 128 137 133 124 126 129 133 133 132 126 117 114 108 102 89 87 103 81 96 110 102 108 124 132 150 187 10 38 45 71 87 73 77 95 102 101 102 102 99 93 88 85 81 71 63 58 52 47 44 42 40 37 34 31 28 25
142 140 138 138 139 139 137 134 134 138 139 141 142 141 140 138 137 135 133 133 131 127 123 117 117 134 153 165 166 166 156 148 134 130 135 139 132 126 124 120 119 109 96 106 114 113 117 121 112 107 120 123 128 169 200 356 54 53 63 76 77 86 96 86 82 94 99 96 90 83 78 72 61 55 52 46 38 36 37 37 40 38 36 33 27
146 144 142 141 139 139 140 137 137 142 143 144 143 141 139 137 139 136 133 135 133 128 125 129 149 162 164 170 175 177 165 153 138 134 141 140 130 124 122 119 116 107 98 107 111 108 111 111 109 121 137 129 122 158 189 199 71 43 36 69 92 88 73 58 59 76 84 84 83 72 60 54 49 43 39 35 30 31 32 30 34 34 31 29 24
151 146 145 144 141 141 143 139 139 143 144 144 143 141 138 135 137 132 128 131 129 129 141 158 169 171 171 173 179 181 173 157 143 143 145 137 130 123 117 114 110 115 121 110 109 114 113 110 113 121 119 124 131 124 159 196 152 50 39 72 94 87 60 45 47 50 25 40 62 51 44 42 38 33 27 26 27 29 30 23 19 17 15 16 14
151 148 147 145 143 144 143 140 142 144 144 143 141 140 137 135 137 133 130 131 134 148 170 181 180 178 177 179 183 180 170 157 147 146 144 140 135 125 115 115 110 119 129 117 123 133 134 132 119 124 127 131 141 123 131 180 181 89 55 65 90 116 69 35 41 26 355 4 34 35 40 39 34 33 30 28 29 30 27 18 11 3 358 356 0
149 149 149 147 147 147 143 141 142 145 145 143 140 138 139 138 137 137 137 142 157 176 189 193 184 179 180 182 179 173 164 153 148 145 144 144 137 130 126 124 122 126 125 119 124 126 129 133 120 125 135 135 141 125 123 151 169 140 78 63 83 126 110 29 16 326 356 4 21 27 27 25 27 29 27 23 19 20 13 4 2 358 353 347 348
151 149 148 147 147 148 147 145 145 144 142 141 139 138 141 139 136 139 143 152 171 188 197 193 177 173 176 176 171 169 163 154 150 148 147 142 133 130 127 125 133 127 118 119 117 117 125 132 131 131 137 135 117 103 128 138 149 149 114 84 69 82 167 18 355 234 345 345 346 2 360 6 17 17 12 9 3 7 3 352 354 356 353 349 346
154 148 146 145 148 153 152 147 146 142 137 137 137 140 144 139 138 144 148 159 173 174 177 174 167 166 164 163 168 169 164 156 153 153 148 138 131 132 125 128 140 123 116 124 114 118 128 130 135 137 143 134 89 92 139 158 167 163 137 145 133 82 204 228 200 201 272 323 329 344 338 343 3 3 355 359 358 1 358 342 342 348 348 350 351
154 150 149 149 154 154 151 148 147 145 144 148 149 150 148 139 143 152 156 166 170 159 163 164 157 160 155 154 164 168 167 159 153 154 150 140 134 136 132 138 140 116 112 120 112 118 120 116 122 125 131 106 83 87 106 163 176 174 157 154 192 199 204 196 201 221 263 306 332 350 339 318 337 346 334 347 357 351 345 335 334 338 337 344 350
152 152 156 156 157 154 154 154 153 154 154 158 162 156 148 147 156 163 166 171 170 168 175 174 160 157 156 156 162 168 169 161 154 153 153 146 140 144 148 143 134 115 115 122 118 121 115 113 113 112 125 95 68 71 93 140 170 181 171 95 123 211 252 226 218 279 302 298 304 324 329 310 311 324 317 328 342 332 328 331 332 331 329 334 340
152 157 162 160 158 158 161 160 159 162 158 157 163 156 152 162 168 169 172 174 174 176 180 184 181 170 163 162 163 169 170 164 159 156 156 154 152 158 155 140 137 125 127 131 118 119 120 122 108 99 140 107 55 66 96 123 174 173 171 100 56 185 301 198 186 359 323 293 288 285 303 306 293 297 295 303 312 306 311 323 326 329 329 327 329
157 161 164 161 163 167 165 163 166 166 159 158 160 156 162 171 171 171 172 173 176 176 177 183 188 175 165 163 164 171 173 167 165 163 163 163 161 163 157 152 153 139 137 133 116 122 128 116 100 128 152 125 87 115 92 73 207 168 163 169 209 158 87 147 260 310 292 288 284 275 284 292 288 277 268 287 300 296 301 307 311 319 324 323 324
163 164 166 164 170 173 167 169 173 165 159 160 159 157 168 172 171 172 171 172 174 171 170 170 172 167 162 163 163 168 174 172 172 172 171 172 172 169 165 170 167 154 147 134 126 134 128 112 128 152 146 119 97 131 93 127 186 171 177 190 229 225 229 249 257 261 278 291 281 288 297 295 290 277 275 296 300 296 303 308 310 313 315 319 323
165 166 168 167 174 174 170 176 173 161 158 160 160 159 168 170 168 169 166 166 168 164 158 159 164 162 160 163 160 162 171 174 175 177 178 175 177 176 171 174 173 167 160 144 144 140 127 137 152 134 142 124 104 114 71 21 132 134 216 226 268 239 236 249 247 264 284 280 277 304 320 308 289 285 296 307 303 302 311 314 315 312 310 316 318
166 168 170 172 176 172 173 180 170 161 157 158 162 160 164 169 163 163 160 156 162 160 151 158 166 162 162 163 160 160 165 170 173 175 179 175 175 178 176 176 171 170 168 161 167 153 141 160 140 125 165 149 139 152 117 83 131 102 294 270 278 261 261 277 291 316 306 282 284 302 322 327 299 290 300 308 304 307 316 317 316 309 301 307 312
169 171 172 175 177 171 174 181 172 164 159 161 167 161 166 174 164 162 161 158 167 167 160 165 166 161 165 165 161 161 163 166 165 165 172 175 175 178 178 179 169 167 170 167 173 166 161 177 153 154 176 162 152 165 154 115 106 78 323 290 271 264 332 320 311 329 334 316 315 307 306 306 293 284 291 299 298 308 318 316 318 315 301 302 313
174 176 176 177 178 174 176 179 175 171 165 166 168 164 170 178 170 168 167 167 174 174 171 170 164 161 165 166 163 165 166 165 163 165 172 174 173 173 177 177 169 167 170 163 166 172 176 183 173 178 188 175 167 160 162 157 125 64 303 302 291 286 323 319 312 324 333 329 329 316 304 297 294 297 293 292 297 307 316 312 313 323 319 318 329
179 180 177 179 181 179 179 177 175 177 173 168 168 169 174 178 176 172 169 172 175 175 178 174 165 163 165 166 167 169 169 169 169 170 173 173 170 169 172 173 169 169 170 170 176 180 182 181 177 189 196 186 189 179 174 176 157 113 330 300 286 304 319 316 317 322 324 325 328 330 323 317 321 319 306 302 308 308 312 318 318 325 333 338 344
183 182 178 182 186 184 181 176 176 182 179 173 173 175 177 178 176 172 169 172 174 175 178 176 170 172 170 168 171 174 174 173 174 174 173 174 174 173 172 170 171 176 178 181 184 178 182 189 185 192 194 195 204 192 188 187 158 121 35 334 318 337 334 322 320 323 329 329 329 338 338 336 342 340 323 316 319 312 311 324 327 328 338 347 351
186 184 181 186 191 189 183 176 179 187 184 180 180 178 180 178 170 172 175 173 175 176 178 182 177 178 180 174 172 176 178 177 175 177 178 174 174 178 175 172 175 183 186 186 181 175 183 203 208 213 218 223 220 209 207 209 197 194 243 28 5 348 324 314 313 317 333 331 327 335 338 334 337 340 333 324 326 327 321 321 321 330 346 354 354
187 185 185 189 194 192 185 179 182 189 187 185 185 179 181 180 169 175 179 172 178 182 182 187 183 182 185 176 171 175 182 183 178 180 181 176 178 182 178 175 176 183 190 185 177 180 185 190 201 207 211 222 229 233 225 217 214 221 287 309 308 308 305 306 304 310 323 321 322 328 330 331 326 326 330 328 331 335 319 313 321 337 354 358 356
187 186 188 193 198 196 189 185 185 190 189 186 186 181 181 181 173 174 178 176 185 189 185 185 182 183 187 177 174 181 184 185 187 185 181 180 182 181 179 179 179 183 189 185 179 187 191 185 202 205 197 206 223 236 234 220 206 199 294 307 301 296 296 302 307 322 319 305 311 321 323 332 329 326 332 328 328 317 288 298 329 344 354 355 351
Height
1542 1543 1544 1544 1545 1545 1546 1546 1547 1547 1547 1548 1548 1549 1549 1549 1550 1550 1550 1550 1550 1549 1549 1548 1548 1548 1548 1548 1548 1548 1548 1548 1549 1549 1550 1551 1552 1553 1554 1555 1556 1557 1558 1559 1560 1560 1560 1560 1560 1560 1559 1559 1560 1561 1562 1563 1564 1565 1566 1567 1568 1569 1569 1570 1571 1572 1573 1573 1574 1574 1575 1575 1575 1575 1575 1575 1575 1576 1576 1576 1576 1577 1578 1577 1577
1541 1543 1544 1544 1545 1545 1546 1546 1547 1547 1548 1549 1549 1549 1549 1550 1550 1550 1550 1550 1550 1550 1549 1549 1549 1549 1549 1549 1549 1549 1549 1549 1549 1550 1550 1552 1553 1554 1555 1556 1557 1558 1559 1560 1561 1561 1562 1562 1562 1562 1561 1561 1561 1562 1562 1564 1565 1566 1567 1568 1569 1570 1570 1571 1571 1572 1573 1573 1574 1574 1575 1575 1575 1575 1575 1575 1576 1576 1577 1577 1578 1578 1578 1578 1578
1542 1543 1544 1545 1546 1546 1547 1547 1547 1547 1548 1549 1549 1550 1550 1550 1550 1550 1550 1550 1550 1550 1550 1550 1550 1550 1550 1550 1550 1550 1550 1550 1550 1551 1552 1553 1554 1555 1556 1557 1558 1559 1560 1561 1562 1563 1563 1563 1563 1563 1563 1563 1563 1563 1563 1564 1566 1567 1568 1569 1570 1571 1572 1572 1572 1572 1573 1573 1574 1574 1575 1575 1575 1575 1575 1576 1576 1577 1577 1578 1578 1579 1578 1579 1578
1543 1543 1544 1545 1546 1546 1547 1547 1548 1548 1549 1549 1550 1550 1550 1550 1550 1550 1551 1551 1550 1550 1550 1550 1551 1551 1551 1551 1551 1551 1551 1551 1552 1552 1553 1554 1555 1556 1557 1558 1559 1560 1561 1562 1563 1564 1564 1564 1565 1565 1564 1564 1564 1564 1565 1566 1567 1568 1569 1570 1571 1572 1573 1573 1573 1573 1573 1574 1574 1574 1575 1575 1575 1576 1576 1576 1577 1577 1578 1578 1579 1579 1579 1579 1579
1543 1544 1545 1545 1546 1546 1547 1547 1548 1548 1549 1549 1550 1550 1550 1550 1550 1551 1551 1551 1551 1551 1551 1551 1551 1551 1552 1552 1552 1552 1552 1552 1553 1554 1554 1555 1556 1557 1558 1560 1560 1561 1562 1563 1564 1565 1565 1565 1566 1566 1566 1566 1566 1566 1567 1568 1568 1569 1570 1571 1572 1573 1574 1574 1575 1574 1574 1575 1575 1575 1575 1575 1576 1576 1576 1577 1577 1578 1578 1579 1579 1579 1579 1579 1579
1543 1544 1545 1546 1546 1546 1547 1548 1548 1548 1549 1550 1550 1550 1551 1551 1551 1551 1551 1551 1551 1552 1551 1552 1552 1552 1552 1553 1553 1553 1553 1554 1554 1555 1555 1556 1557 1558 1559 1561 1562 1562 1563 1564 1565 1566 1566 1567 1567 1568 1568 1568 1568 1568 1569 1569 1570 1570 1571 1572 1573 1573 1574 1575 1575 1575 1575 1575 1575 1575 1575 1576 1576 1577 1577 1577 1577 1578 1578 1578 1579 1579 1579 1579 1579
1543 1544 1545 1546 1546 1547 1547 1548 1548 1549 1549 1549 1550 1550 1550 1551 1551 1551 1551 1551 1552 1552 1552 1553 1553 1553 1553 1554 1554 1554 1554 1555 1556 1556 1557 1557 1558 1559 1560 1561 1563 1563 1564 1565 1566 1567 1568 1568 1569 1569 1569 1569 1569 1569 1570 1570 1571 1572 1573 1573 1574 1574 1574 1575 1576 1576 1576 1575 1575 1575 1575 1576 1577 1577 1577 1577 1577 1577 1578 1578 1579 1579 1579 1579 1579
1544 1545 1545 1546 1546 1547 1548 1548 1548 1549 1549 1549 1550 1550 1551 1551 1551 1552 1552 1552 1553 1553 1553 1554 1554 1554 1554 1555 1555 1556 1556 1556 1557 1557 1558 1558 1559 1560 1561 1563 1564 1564 1565 1566 1567 1567 1568 1570 1570 1570 1570 1570 1570 1570 1571 1571 1572 1573 1574 1574 1575 1575 1575 1575 1576 1576 1576 1576 1575 1575 1576 1576 1577 1577 1577 1577 1577 1577 1578 1578 1579 1579 1579 1579 1579
1544 1544 1545 1546 1546 1547 1547 1548 1548 1548 1549 1549 1550 1550 1551 1551 1552 1552 1553 1554 1554 1554 1555 1554 1555 1555 1555 1556 1557 1557 1557 1558 1558 1559 1559 1560 1560 1561 1562 1564 1565 1565 1566 1567 1568 1568 1569 1570 1571 1571 1571 1571 1571 1571 1572 1572 1572 1573 1574 1575 1575 1576 1576 1576 1576 1576 1576 1576 1576 1576 1576 1576 1577 1577 1577 1577 1577 1577 1577 1578 1578 1579 1579 1579 1579
1544 1544 1545 1546 1546 1547 1547 1548 1548 1548 1549 1549 1550 1550 1551 1551 1552 1552 1553 1554 1555 1555 1556 1556 1556 1556 1556 1557 1558 1558 1559 1559 1559 1560 1560 1561 1561 1562 1564 1565 1566 1566 1567 1568 1569 1569 1570 1571 1571 1572 1572 1572 1572 1572 1572 1572 1573 1574 1575 1575 1576 1576 1577 1577 1577 1576 1576 1576 1576 1576 1577 1577 1577 1577 1578 1578 1578 1578 1578 1578 1578 1579 1579 1579 1579
1544 1545 1545 1546 1546 1547 1547 1547 1547 1548 1548 1549 1550 1550 1551 1551 1552 1553 1554 1554 1555 1556 1556 1557 1557 1557 1558 1558 1559 1559 1560 1560 1561 1561 1562 1562 1563 1564 1565 1566 1567 1567 1568 1569 1570 1570 1571 1571 1572 1572 1573 1573 1573 1573 1573 1573 1574 1574 1575 1575 1576 1577 1577 1578 1577 1577 1577 1577 1576 1577 1577 1578 1578 1578 1578 1579 1579 1578 1578 1578 1578 1579 1579 1579 1579
1544 1545 1545 1546 1546 1547 1547 1547 1547 1548 1548 1549 1550 1550 1551 1552 1553 1553 1554 1554 1555 1556 1557 1557 1558 1559 1559 1560 1560 1560 1561 1561 1562 1563 1563 1564 1564 1565 1566 1567 1568 1569 1569 1570 1571 1571 1572 1572 1572 1573 1573 1573 1573 1574 1574 1574 1575 1575 1575 1576 1576 1577 1578 1578 1578 1578 1578 1578 1578 1578 1578 1578 1579 1579 1579 1579 1579 1579 1578 1578 1579 1579 1579 1579 1579
1544 1545 1545 1546 1546 1547 1547 1547 1548 1548 1549 1549 1550 1550 1551 1552 1553 1553 1554 1555 1555 1556 1557 1558 1559 1560 1560 1561 1561 1561 1562 1562 1563 1564 1565 1565 1566 1567 1567 1568 1569 1569 1570 1571 1572 1572 1573 1573 1573 1574 1574 1574 1574 1575 1575 1575 1576 1576 1576 1576 1577 1577 1578 1579 1580 1580 1579 1579 1579 1579 1579 1579 1580 1580 1580 1580 1580 1579 1579 1579 1579 1579 1580 1580 1580
1544 1544 1545 1545 1546 1547 1547 1548 1548 1548 1549 1549 1550 1550 1551 1552 1553 1553 1554 1555 1556 1557 1558 1559 1560 1560 1561 1562 1562 1562 1563 1563 1564 1565 1566 1566 1567 1568 1568 1569 1570 1570 1571 1572 1573 1573 1574 1574 1574 1574 1575 1575 1575 1575 1576 1576 1576 1577 1577 1577 1577 1578 1579 1579 1581 1581 1580 1580 1581 1581 1581 1581 1581 1581 1581 1581 1580 1580 1580 1580 1580 1580 1580 1580 1580
1544 1544 1545 1545 1546 1547 1547 1548 1548 1548 1549 1549 1550 1550 1551 1552 1553 1553 1554 1555 1556 1557 1558 1559 1560 1561 1561 1563 1563 1564 1564 1565 1565 1566 1567 1567 1568 1569 1569 1570 1570 1571 1572 1572 1573 1574 1574 1574 1575 1575 1575 1576 1576 1576 1577 1577 1578 1578 1579 1579 1579 1579 1579 1580 1581 1582 1581 1582 1582 1582 1582 1582 1582 1582 1581 1581 1581 1581 1581 1580 1580 1580 1580 1580 1580
1544 1545 1545 1545 1546 1546 1547 1548 1548 1548 1549 1549 1550 1550 1551 1552 1552 1553 1554 1555 1556 1557 1558 1559 1561 1561 1562 1563 1564 1565 1565 1566 1566 1567 1568 1569 1570 1570 1570 1571 1572 1572 1573 1573 1574 1574 1575 1575 1575 1575 1576 1576 1577 1577 1578 1578 1579 1580 1580 1580 1580 1580 1581 1581 1582 1582 1582 1583 1583 1583 1583 1583 1583 1582 1582 1582 1582 1582 1581 1581 1581 1581 1581 1580 1580
1545 1545 1545 1546 1546 1546 1546 1547 1548 1548 1548 1549 1549 1550 1551 1552 1552 1553 1554 1555 1556 1558 1559 1560 1561 1562 1563 1564 1565 1565 1566 1567 1567 1568 1569 1570 1571 1571 1572 1572 1573 1573 1574 1574 1575 1575 1575 1576 1576 1576 1577 1577 1578 1578 1579 1579 1580 1581 1581 1582 1582 1582 1582 1582 1582 1582 1583 1583 1583 1583 1583 1583 1583 1583 1583 1583 1583 1582 1582 1582 1581 1581 1581 1581 1581
1545 1545 1546 1546 1546 1546 1547 1547 1547 1548 1548 1548 1549 1550 1550 1552 1553 1554 1555 1556 1557 1558 1559 1560 1561 1562 1563 1564 1565 1566 1567 1568 1568 1569 1571 1572 1573 1573 1573 1573 1574 1574 1575 1575 1575 1576 1576 1576 1577 1577 1578 1578 1579 1580 1580 1581 1581 1582 1582 1583 1583 1583 1583 1584 1584 1583 1583 1584 1584 1584 1584 1584 1583 1583 1583 1583 1583 1583 1582 1582 1582 1581 1581 1581 1581
1545 1546 1545 1546 1546 1546 1547 1547 1547 1548 1548 1548 1549 1549 1550 1552 1553 1554 1555 1557 1558 1558 1559 1560 1561 1563 1564 1565 1566 1567 1568 1569 1569 1571 1572 1573 1574 1574 1574 1574 1575 1575 1576 1576 1576 1577 1577 1577 1578 1578 1579 1580 1580 1581 1581 1582 1582 1583 1583 1584 1584 1584 1584 1585 1584 1584 1584 1584 1584 1584 1584 1584 1583 1583 1583 1583 1583 1583 1583 1582 1582 1582 1582 1581 1581
1545 1546 1545 1546 1546 1546 1547 1547 1548 1548 1548 1548 1549 1549 1550 1552 1553 1555 1556 1557 1558 1559 1560 1561 1562 1563 1564 1565 1567 1568 1569 1570 1571 1572 1573 1574 1575 1575 1575 1576 1576 1576 1577 1577 1577 1577 1578 1578 1579 1579 1580 1581 1581 1582 1582 1583 1583 1584 1584 1585 1585 1586 1586 1586 1585 1585 1586 1586 1585 1584 1584 1584 1584 1583 1583 1584 1584 1583 1583 1583 1582 1582 1582 1582 1581
1546 1546 1545 1546 1546 1546 1547 1547 1547 1548 1548 1548 1549 1550 1550 1552 1553 1555 1556 1558 1559 1560 1560 1561 1563 1564 1565 1566 1567 1568 1570 1571 1572 1573 1574 1575 1576 1576 1576 1577 1577 1577 1578 1578 1578 1578 1579 1579 1580 1581 1581 1582 1582 1583 1583 1584 1584 1585 1585 1586 1586 1587 1587 1587 1586 1586 1587 1587 1586 1585 1585 1584 1584 1584 1584 1584 1584 1584 1583 1583 1583 1582 1582 1582 1582
1546 1546 1546 1546 1546 1546 1547 1547 1547 1547 1548 1549 1549 1550 1551 1552 1553 1555 1557 1558 1559 1560 1561 1562 1564 1564 1566 1567 1568 1569 1571 1572 1573 1574 1575 1576 1577 1577 1577 1577 1578 1579 1579 1579 1579 1580 1580 1581 1581 1582 1583 1583 1584 1584 1585 1585 1586 1586 1586 1587 1587 1587 1588 1587 1586 1587 1588 1587 1586 1586 1585 1585 1585 1585 1585 1585 1585 1584 1584 1583 1583 1583 1582 1582 1582
1546 1546 1546 1546 1546 1547 1547 1547 1547 1548 1548 1549 1550 1550 1551 1553 1554 1556 1557 1559 1560 1561 1563 1564 1565 1565 1566 1568 1569 1570 1571 1573 1575 1576 1576 1577 1578 1578 1578 1578 1579 1580 1580 1580 1580 1581 1581 1582 1582 1583 1584 1584 1585 1585 1585 1586 1586 1587 1587 1588 1588 1588 1587 1587 1587 1588 1588 1587 1586 1586 1586 1586 1586 1586 1585 1585 1585 1585 1585 1584 1584 1583 1583 1583 1582
1546 1547 1546 1546 1547 1547 1547 1547 1548 1548 1549 1549 1550 1551 1552 1553 1555 1557 1558 1559 1561 1562 1563 1565 1566 1567 1567 1569 1570 1571 1572 1574 1575 1576 1577 1578 1578 1579 1579 1580 1580 1581 1581 1581 1582 1582 1582 1583 1583 1584 1584 1585 1585 1586 1586 1586 1587 1587 1588 1588 1588 1588 1587 1588 1589 1589 1588 1587 1587 1587 1586 1587 1587 1586 1586 1586 1586 1585 1585 1584 1584 1583 1583 1583 1583
1547 1547 1547 1547 1547 1547 1547 1548 1548 1549 1550 1550 1551 1552 1553 1555 1556 1558 1559 1560 1562 1563 1564 1566 1567 1568 1569 1570 1571 1571 1573 1574 1576 1578 1579 1579 1580 1580 1581 1581 1581 1582 1582 1583 1583 1583 1583 1584 1584 1584 1585 1585 1585 1586 1586 1586 1587 1588 1588 1588 1588 1588 1588 1589 1589 1589 1588 1587 1587 1587 1587 1587 1587 1587 1586 1586 1586 1586 1585 1585 1584 1584 1584 1584 1583
1547 1548 1548 1548 1548 1548 1548 1548 1549 1549 1551 1552 1552 1553 1554 1556 1558 1559 1560 1562 1563 1565 1566 1567 1568 1569 1570 1571 1572 1572 1573 1575 1577 1579 1580 1581 1581 1582 1582 1582 1583 1583 1584 1584 1584 1584 1584 1584 1585 1585 1585 1585 1586 1586 1586 1586 1587 1588 1588 1589 1590 1589 1590 1590 1590 1589 1588 1588 1588 1588 1588 1587 1587 1587 1587 1586 1586 1586 1586 1585 1585 1585 1584 1584 1584
1548 1548 1549 1549 1549 1549 1549 1549 1549 1550 1551 1553 1554 1555 1556 1558 1559 1560 1562 1563 1564 1566 1567 1568 1569 1570 1571 1572 1573 1574 1575 1577 1579 1580 1581 1582 1583 1583 1583 1583 1584 1584 1584 1585 1585 1585 1585 1585 1585 1586 1586 1586 1586 1586 1586 1587 1587 1588 1589 1590 1590 1590 1590 1590 1590 1589 1588 1588 1588 1588 1588 1588 1588 1588 1587 1587 1587 1587 1587 1586 1586 1585 1585 1585 1584
1548 1549 1549 1550 1550 1551 1551 1551 1551 1551 1552 1554 1555 1557 1558 1559 1561 1562 1563 1564 1566 1567 1568 1569 1570 1571 1573 1574 1575 1576 1578 1579 1580 1580 1582 1583 1583 1584 1584 1584 1584 1584 1585 1585 1586 1585 1586 1586 1586 1586 1586 1586 1586 1586 1587 1588 1589 1590 1590 1590 1590 1590 1591 1591 1590 1589 1589 1589 1589 1589 1589 1589 1588 1588 1588 1588 1588 1588 1587 1587 1587 1586 1586 1585 1585
1548 1549 1550 1551 1552 1552 1552 1553 1553 1553 1553 1554 1556 1558 1559 1560 1562 1563 1564 1565 1566 1568 1569 1570 1571 1573 1574 1576 1576 1578 1580 1580 1581 1581 1582 1583 1584 1584 1585 1585 1585 1585 1585 1585 1586 1586 1586 1586 1586 1587 1587 1587 1587 1588 1589 1590 1590 1590 1590 1590 1591 1591 1591 1591 1590 1590 1590 1590 1590 1589 1589 1589 1589 1589 1589 1589 1588 1588 1588 1588 1588 1587 1587 1586 1586
1549 1550 1551 1552 1553 1553 1554 1554 1555 1555 1555 1556 1557 1559 1561 1562 1563 1564 1565 1566 1567 1569 1570 1571 1573 1574 1576 1576 1578 1580 1581 1581 1582 1582 1583 1584 1584 1585 1585 1585 1585 1586 1586 1586 1587 1588 1587 1587 1587 1588 1588 1588 1589 1590 1591 1591 1591 1591 1591 1591 1591 1591 1591 1592 1592 1591 1591 1591 1591 1590 1590 1590 1590 1590 1590 1590 1589 1589 1589 1589 1588 1588 1587 1587 1587
1550 1551 1552 1553 1554 1554 1555 1556 1556 1557 1557 1558 1559 1560 1562 1563 1564 1565 1566 1567 1568 1569 1571 1572 1574 1575 1577 1577 1579 1581 1582 1582 1583 1583 1583 1584 1585 1585 1586 1586 1586 1586 1587 1587 1588 1588 1588 1588 1588 1588 1589 1589 1590 1591 1591 1591 1591 1592 1592 1592 1592 1592 1592 1593 1593 1593 1592 1592 1592 1592 1592 1591 1591 1591 1591 1591 1590 1590 1590 1589 1589 1588 1588 1587 1587
1550 1551 1552 1554 1554 1555 1556 1557 1558 1559 1559 1560 1561 1562 1563 1564 1565 1566 1567 1568 1569 1570 1572 1573 1575 1576 1578 1578 1580 1581 1582 1582 1583 1583 1584 1585 1586 1586 1586 1587 1587 1587 1588 1588 1588 1588 1588 1588 1589 1589 1589 1589 1590 1591 1592 1592 1592 1592 1592 1593 1593 1593 1593 1593 1593 1593 1594 1594 1593 1593 1593 1593 1592 1592 1592 1591 1591 1590 1590 1590 1589 1588 1588 1587 1587
1550 1552 1553 1554 1555 1556 1557 1558 1559 1560 1561 1561 1563 1564 1564 1565 1566 1567 1568 1569 1570 1571 1573 1574 1576 1577 1578 1579 1580 1581 1582 1583 1583 1584 1585 1586 1586 1587 1587 1587 1587 1588 1588 1589 1588 1588 1589 1589 1589 1590 1590 1590 1590 1591 1592 1593 1593 1593 1593 1593 1594 1594 1594 1594 1593 1594 1594 1595 1594 1594 1594 1593 1593 1592 1592 1591 1591 1591 1590 1590 1589 1589 1588 1587 1587
1551 1552 1554 1555 1556 1557 1558 1559 1560 1561 1562 1563 1564 1565 1566 1567 1568 1568 1569 1570 1571 1572 1574 1575 1577 1578 1579 1580 1581 1581 1582 1583 1584 1584 1585 1586 1586 1587 1587 1587 1588 1588 1589 1589 1589 1589 1589 1590 1590 1590 1591 1591 1591 1592 1593 1593 1593 1594 1594 1594 1594 1594 1594 1594 1594 1595 1595 1595 1595 1595 1594 1594 1593 1593 1592 1592 1591 1591 1590 1590 1589 1589 1588 1587 1587
1551 1553 1554 1555 1556 1557 1559 1560 1561 1562 1563 1564 1565 1566 1567 1568 1569 1570 1571 1572 1572 1574 1575 1576 1577 1578 1579 1580 1581 1582 1582 1583 1584 1584 1585 1586 1586 1587 1587 1588 1588 1589 1589 1589 1589 1589 1590 1590 1590 1591 1591 1592 1592 1593 1593 1593 1594 1595 1595 1595 1595 1595 1595 1595 1595 1595 1595 1594 1595 1594 1594 1594 1593 1592 1592 1591 1591 1590 1590 1590 1589 1589 1588 1587 1587
1552 1553 1554 1555 1557 1558 1559 1560 1561 1563 1564 1565 1566 1567 1569 1569 1570 1571 1572 1573 1574 1575 1575 1576 1577 1578 1579 1580 1581 1581 1582 1583 1584 1585 1585 1586 1587 1587 1588 1588 1589 1589 1589 1589 1589 1590 1590 1591 1591 1591 1592 1592 1593 1593 1593 1594 1594 1595 1595 1595 1596 1595 1595 1595 1595 1595 1595 1594 1594 1594 1593 1593 1592 1592 1591 1591 1590 1590 1590 1589 1589 1588 1588 1587 1587
1552 1553 1554 1555 1557 1558 1560 1561 1562 1563 1564 1566 1567 1568 1570 1571 1572 1573 1574 1575 1575 1575 1576 1577 1578 1579 1580 1580 1581 1581 1582 1583 1584 1585 1586 1586 1587 1587 1588 1589 1589 1589 1589 1589 1590 1590 1591 1591 1591 1592 1592 1593 1593 1593 1594 1594 1595 1595 1596 1595 1595 1596 1596 1596 1596 1595 1595 1595 1594 1594 1593 1593 1592 1592 1591 1591 1590 1589 1589 1589 1588 1588 1587 1587 1586
1553 1554 1555 1556 1557 1559 1560 1561 1563 1564 1565 1567 1568 1569 1571 1572 1573 1574 1575 1576 1576 1576 1576 1577 1578 1579 1580 1580 1581 1582 1583 1583 1584 1585 1585 1586 1587 1587 1588 1589 1589 1589 1590 1590 1590 1591 1591 1592 1592 1592 1593 1594 1594 1594 1594 1595 1595 1595 1596 1596 1596 1596 1596 1596 1596 1596 1596 1596 1595 1594 1593 1593 1593 1592 1592 1592 1590 1589 1589 1588 1588 1588 1587 1586 1585
1553 1555 1556 1557 1558 1559 1560 1562 1563 1564 1566 1567 1569 1570 1571 1573 1574 1575 1575 1576 1576 1577 1577 1577 1578 1579 1580 1581 1581 1582 1583 1583 1584 1585 1585 1586 1586 1587 1588 1589 1589 1590 1590 1590 1591 1591 1592 1592 1593 1593 1594 1594 1594 1594 1594 1595 1595 1595 1595 1596 1596 1596 1596 1596 1596 1596 1596 1596 1595 1594 1594 1593 1592 1592 1592 1592 1591 1590 1589 1588 1588 1588 1587 1586 1585
1553 1555 1556 1558 1559 1559 1560 1562 1563 1564 1566 1567 1569 1570 1571 1572 1574 1574 1575 1576 1577 1577 1578 1578 1578 1579 1580 1581 1581 1582 1582 1583 1584 1585 1585 1586 1587 1588 1589 1589 1589 1590 1590 1591 1591 1592 1592 1593 1593 1593 1594 1594 1594 1595 1595 1595 1595 1595 1596 1596 1595 1596 1596 1596 1596 1596 1596 1595 1595 1594 1594 1593 1593 1593 1592 1592 1591 1590 1589 1588 1588 1587 1586 1585 1584
1553 1554 1555 1557 1558 1559 1560 1561 1563 1564 1565 1567 1568 1570 1571 1572 1573 1574 1575 1576 1577 1577 1578 1578 1579 1579 1580 1581 1581 1582 1582 1583 1584 1585 1585 1586 1587 1588 1589 1589 1589 1590 1591 1591 1592 1592 1593 1594 1594 1594 1594 1594 1594 1595 1595 1595 1595 1596 1596 1595 1595 1595 1596 1596 1595 1595 1595 1595 1594 1594 1594 1593 1593 1593 1592 1592 1591 1590 1589 1588 1587 1586 1585 1584 1583
1552 1554 1555 1556 1558 1559 1560 1561 1562 1564 1565 1567 1568 1569 1570 1571 1572 1573 1574 1575 1576 1577 1578 1578 1579 1579 1580 1581 1581 1582 1583 1583 1584 1585 1585 1586 1587 1588 1589 1589 1589 1590 1591 1592 1592 1593 1593 1594 1594 1594 1594 1594 1594 1595 1595 1595 1595 1596 1596 1595 1595 1595 1595 1595 1595 1594 1594 1594 1594 1594 1594 1593 1593 1592 1592 1591 1590 1589 1588 1587 1586 1585 1585 1583 1582
1551 1553 1555 1555 1556 1558 1560 1560 1562 1563 1565 1567 1568 1569 1571 1572 1573 1573 1574 1575 1576 1577 1578 1578 1579 1579 1580 1581 1581 1582 1583 1584 1584 1585 1586 1586 1587 1588 1588 1589 1590 1591 1591 1592 1592 1593 1594 1594 1594 1594 1594 1594 1595 1595 1595 1595 1595 1596 1596 1595 1595 1595 1595 1595 1594 1594 1594 1594 1594 1594 1593 1592 1592 1591 1591 1590 1589 1589 1588 1587 1586 1585 1584 1583 1582
1550 1552 1554 1555 1556 1557 1559 1560 1562 1563 1564 1567 1568 1569 1571 1572 1573 1574 1574 1575 1576 1577 1577 1578 1579 1579 1580 1581 1582 1582 1583 1584 1585 1585 1586 1586 1587 1588 1588 1589 1590 1591 1591 1592 1592 1593 1594 1594 1594 1594 1595 1595 1595 1595 1595 1595 1595 1595 1595 1595 1595 1595 1595 1594 1594 1593 1593 1593 1593 1593 1592 1591 1590 1590 1589 1588 1588 1588 1587 1586 1586 1585 1584 1583 1582
1550 1551 1552 1554 1555 1556 1558 1559 1561 1563 1564 1566 1568 1569 1570 1571 1573 1573 1574 1575 1575 1576 1577 1578 1578 1579 1580 1580 1581 1582 1583 1584 1584 1585 1586 1586 1587 1588 1589 1589 1590 1590 1591 1591 1592 1593 1593 1594 1594 1594 1595 1595 1595 1596 1596 1596 1595 1595 1595 1595 1595 1595 1595 1594 1594 1593 1592 1592 1592 1592 1590 1589 1589 1588 1588 1587 1587 1587 1586 1586 1585 1584 1584 1583 1582
1549 1550 1551 1553 1554 1556 1557 1559 1560 1562 1564 1565 1567 1569 1570 1571 1572 1572 1573 1574 1574 1575 1576 1577 1578 1579 1580 1580 1581 1582 1583 1583 1584 1585 1586 1586 1587 1588 1589 1589 1590 1590 1591 1591 1592 1592 1593 1593 1594 1595 1595 1595 1596 1596 1596 1595 1595 1595 1595 1595 1595 1595 1595 1594 1594 1593 1592 1591 1592 1591 1590 1589 1588 1588 1587 1587 1586 1586 1586 1585 1585 1584 1583 1582 1581
1548 1549 1550 1552 1553 1555 1556 1558 1560 1561 1563 1564 1566 1568 1569 1570 1571 1572 1573 1573 1574 1575 1576 1577 1578 1579 1580 1580 1581 1581 1582 1583 1583 1584 1585 1586 1587 1588 1588 1589 1589 1590 1590 1591 1592 1592 1593 1593 1594 1595 1595 1595 1595 1596 1596 1595 1595 1595 1595 1595 1595 1595 1594 1594 1593 1592 1591 1590 1591 1591 1590 1589 1588 1588 1588 1587 1586 1585 1585 1584 1584 1584 1583 1582 1580
1547 1549 1550 1551 1552 1554 1556 1557 1559 1561 1562 1564 1565 1567 1568 1569 1571 1572 1573 1574 1574 1575 1576 1577 1578 1579 1579 1580 1581 1581 1582 1583 1583 1584 1585 1586 1586 1587 1588 1588 1589 1590 1590 1590 1591 1592 1593 1593 1594 1594 1595 1595 1595 1595 1595 1595 1595 1595 1595 1595 1595 1595 1594 1594 1593 1592 1591 1590 1590 1590 1590 1589 1588 1588 1587 1587 1585 1584 1584 1584 1583 1583 1582 1580 1579
1546 1548 1549 1550 1551 1553 1555 1557 1558 1560 1561 1563 1564 1566 1568 1569 1571 1572 1573 1574 1575 1575 1576 1577 1578 1578 1579 1580 1580 1581 1582 1582 1583 1584 1584 1585 1586 1586 1587 1588 1589 1589 1589 1590 1591 1592 1592 1593 1593 1594 1594 1594 1595 1595 1595 1595 1595 1595 1595 1595 1595 1594 1594 1593 1593 1592 1591 1591 1590 1590 1590 1589 1588 1587 1587 1586 1585 1584 1583 1583 1583 1582 1580 1579 1578
1545 1547 1548 1549 1550 1552 1554 1556 1557 1559 1560 1562 1564 1565 1567 1568 1570 1571 1572 1573 1574 1575 1576 1576 1577 1578 1578 1579 1579 1580 1581 1582 1583 1583 1584 1585 1585 1586 1587 1588 1588 1589 1589 1590 1590 1591 1592 1592 1593 1593 1593 1594 1594 1594 1594 1594 1594 1595 1595 1595 1594 1594 1593 1593 1593 1592 1591 1591 1591 1591 1590 1589 1587 1586 1585 1584 1584 1583 1583 1582 1581 1580 1579 1578 1578
1544 1546 1547 1548 1549 1550 1552 1555 1556 1558 1559 1561 1563 1564 1566 1567 1569 1570 1571 1573 1573 1574 1575 1576 1577 1577 1577 1578 1579 1580 1581 1581 1582 1583 1584 1584 1585 1586 1586 1587 1588 1588 1589 1589 1590 1591 1591 1592 1592 1592 1593 1593 1593 1594 1594 1594 1594 1594 1595 1594 1594 1593 1593 1593 1592 1592 1591 1591 1591 1591 1590 1589 1588 1586 1585 1584 1584 1583 1583 1582 1581 1579 1578 1578 1578